RYR384 LPMA-LPPT

Flight info

Callsign RYR384
Flight time 1h 28m
Altitude 34000
Route DEGUN DCT NARTA DCT ESUTI
Aircraft B38M/M-SDE1FGHILORVWXY/HB1

Departure

Time 2026-05-06 16:40
Airport Cristiano Ronaldo International Airport (LPMA)

Arrival

Time 2026-05-06 18:08
Airport Lisbon Humberto Delgado Airport (LPPT)
Time Latitude Longitude Altitude Speed Heading
2026-05-06 15:55 32.69309 -16.77728 174 ft 0 kts 138°
2026-05-06 15:56 32.69287 -16.77762 174 ft 0 kts 138°
2026-05-06 15:57 32.69284 -16.77760 173 ft 0 kts 138°
2026-05-06 16:24 32.69285 -16.77761 174 ft 1 kts 138°
2026-05-06 16:25 32.69303 -16.77781 174 ft 4 kts 138°
2026-05-06 16:25 32.69318 -16.77798 174 ft 4 kts 120°
2026-05-06 16:25 32.69320 -16.77801 174 ft 0 kts 112°
2026-05-06 16:26 32.69284 -16.77760 174 ft 0 kts 138°
2026-05-06 16:29 32.69300 -16.77777 174 ft 4 kts 138°
2026-05-06 16:29 32.69316 -16.77794 174 ft 4 kts 155°
2026-05-06 16:30 32.69330 -16.77797 174 ft 4 kts 196°
2026-05-06 16:30 32.69344 -16.77788 175 ft 4 kts 225°
2026-05-06 16:30 32.69362 -16.77766 175 ft 0 kts 226°
2026-05-06 16:36 32.69356 -16.77774 175 ft 4 kts 226°
2026-05-06 16:36 32.69315 -16.77824 174 ft 13 kts 226°
2026-05-06 16:37 32.69289 -16.77937 172 ft 17 kts 270°
2026-05-06 16:37 32.69253 -16.78075 166 ft 20 kts 224°
2026-05-06 16:37 32.69140 -16.78205 160 ft 25 kts 224°
2026-05-06 16:37 32.69010 -16.78357 154 ft 23 kts 225°
2026-05-06 16:38 32.68894 -16.78424 151 ft 15 kts 232°
2026-05-06 16:38 32.68923 -16.78460 152 ft 6 kts 36°
2026-05-06 16:38 32.68934 -16.78446 152 ft 1 kts 47°
2026-05-06 16:38 32.68943 -16.78434 152 ft 3 kts 47°
2026-05-06 16:39 32.69020 -16.78344 154 ft 43 kts 44°
2026-05-06 16:39 32.69384 -16.77920 175 ft 101 kts 44°
2026-05-06 16:39 32.70000 -16.77203 213 ft 146 kts 40°
2026-05-06 16:39 32.70718 -16.76290 590 ft 154 kts 45°
2026-05-06 16:40 32.71476 -16.75282 1005 ft 173 kts 52°
2026-05-06 16:40 32.71931 -16.73943 1817 ft 182 kts 73°
2026-05-06 16:40 32.72047 -16.72275 2066 ft 231 kts 94°
2026-05-06 16:40 32.71803 -16.70272 2628 ft 255 kts 103°
2026-05-06 16:41 32.71048 -16.68289 3495 ft 267 kts 115°
2026-05-06 16:41 32.70166 -16.66306 4424 ft 272 kts 115°
2026-05-06 16:41 32.69276 -16.64317 5331 ft 282 kts 116°
2026-05-06 16:41 32.68356 -16.62200 5895 ft 287 kts 118°
2026-05-06 16:42 32.67397 -16.60134 6850 ft 286 kts 119°
2026-05-06 16:42 32.66442 -16.58033 7666 ft 290 kts 113°
2026-05-06 16:42 32.66021 -16.55707 8402 ft 290 kts 85°
2026-05-06 16:42 32.66496 -16.53450 9258 ft 285 kts 60°
2026-05-06 16:43 32.67679 -16.51593 10080 ft 282 kts 42°
2026-05-06 16:43 32.69087 -16.49906 10603 ft 296 kts 42°
2026-05-06 16:43 32.70588 -16.48136 10936 ft 316 kts 41°
2026-05-06 16:43 32.72180 -16.46282 11427 ft 328 kts 41°
2026-05-06 16:44 32.73826 -16.44384 12168 ft 332 kts 41°
2026-05-06 16:44 32.75502 -16.42461 12919 ft 337 kts 41°
2026-05-06 16:44 32.77205 -16.40512 13694 ft 342 kts 41°
2026-05-06 16:44 32.78931 -16.38539 14453 ft 347 kts 41°
2026-05-06 16:45 32.80679 -16.36540 15314 ft 350 kts 40°
2026-05-06 16:45 32.82451 -16.34524 16297 ft 355 kts 41°
2026-05-06 16:45 32.84254 -16.32463 17140 ft 364 kts 40°
2026-05-06 16:45 32.86083 -16.30368 18060 ft 367 kts 41°
2026-05-06 16:46 32.87928 -16.28243 18741 ft 371 kts 40°
2026-05-06 16:46 32.89781 -16.26114 19410 ft 372 kts 40°
2026-05-06 16:46 32.91654 -16.23963 20030 ft 375 kts 40°
2026-05-06 16:46 32.93511 -16.21829 20636 ft 377 kts 39°
2026-05-06 16:47 32.95408 -16.19650 21243 ft 380 kts 39°
2026-05-06 16:47 32.97314 -16.17458 21840 ft 382 kts 39°
2026-05-06 16:47 32.99235 -16.15246 22430 ft 385 kts 39°
2026-05-06 16:47 33.01170 -16.13020 23010 ft 388 kts 39°
2026-05-06 16:48 33.03117 -16.10776 23592 ft 390 kts 39°
2026-05-06 16:48 33.05071 -16.08523 24097 ft 392 kts 39°
2026-05-06 16:48 33.07025 -16.06269 24584 ft 394 kts 39°
2026-05-06 16:48 33.09006 -16.03983 25057 ft 396 kts 39°
2026-05-06 16:49 33.10990 -16.01690 25521 ft 398 kts 38°
2026-05-06 16:49 33.12988 -15.99382 26016 ft 400 kts 38°
2026-05-06 16:49 33.14997 -15.97057 26360 ft 406 kts 38°
2026-05-06 16:49 33.17033 -15.94701 26788 ft 408 kts 38°
2026-05-06 16:50 33.19076 -15.92336 27262 ft 410 kts 38°
2026-05-06 16:50 33.21127 -15.89957 27770 ft 411 kts 38°
2026-05-06 16:50 33.23180 -15.87576 28210 ft 413 kts 38°
2026-05-06 16:50 33.25235 -15.85191 28639 ft 415 kts 38°
2026-05-06 16:51 33.27309 -15.82783 29068 ft 417 kts 38°
2026-05-06 16:51 33.29387 -15.80367 29475 ft 418 kts 38°
2026-05-06 16:51 33.31485 -15.77928 29886 ft 420 kts 38°
2026-05-06 16:51 33.33583 -15.75486 30249 ft 422 kts 38°
2026-05-06 16:52 33.35669 -15.73056 30554 ft 424 kts 38°
2026-05-06 16:52 33.37790 -15.70585 30845 ft 427 kts 38°
2026-05-06 16:52 33.39952 -15.68063 31150 ft 430 kts 38°
2026-05-06 16:52 33.42081 -15.65615 31427 ft 431 kts 37°
2026-05-06 16:53 33.44276 -15.63164 31720 ft 434 kts 37°
2026-05-06 16:53 33.46496 -15.60674 31863 ft 441 kts 38°
2026-05-06 16:53 33.48734 -15.58158 32222 ft 441 kts 38°
2026-05-06 16:53 33.50973 -15.55638 32630 ft 441 kts 38°
2026-05-06 16:54 33.53206 -15.53122 32998 ft 441 kts 38°
2026-05-06 16:54 33.55445 -15.50599 33376 ft 441 kts 38°
2026-05-06 16:54 33.57682 -15.48076 33751 ft 441 kts 38°
2026-05-06 16:54 33.59912 -15.45558 34056 ft 443 kts 38°
2026-05-06 16:55 33.62146 -15.43035 34100 ft 443 kts 38°
2026-05-06 16:55 33.66617 -15.37978 34086 ft 440 kts 38°
2026-05-06 16:56 33.71070 -15.32934 34075 ft 440 kts 38°
2026-05-06 16:56 33.75536 -15.27868 34495 ft 441 kts 38°
2026-05-06 16:56 33.77766 -15.25336 34792 ft 441 kts 38°
2026-05-06 16:57 33.79984 -15.22816 35153 ft 440 kts 37°
2026-05-06 16:57 33.82173 -15.20326 35501 ft 439 kts 37°
2026-05-06 16:57 33.84390 -15.17802 35827 ft 438 kts 37°
2026-05-06 16:57 33.86601 -15.15284 36131 ft 437 kts 37°
2026-05-06 16:58 33.88804 -15.12773 36430 ft 437 kts 37°
2026-05-06 16:58 33.91007 -15.10259 36716 ft 436 kts 37°
2026-05-06 16:58 33.93207 -15.07748 37006 ft 435 kts 37°
2026-05-06 16:58 33.95402 -15.05240 37288 ft 435 kts 37°
2026-05-06 16:59 33.97584 -15.02745 37557 ft 434 kts 37°
2026-05-06 16:59 33.99771 -15.00243 37816 ft 434 kts 37°
2026-05-06 16:59 34.01959 -14.97738 38054 ft 433 kts 36°
2026-05-06 17:00 34.06328 -14.92727 38076 ft 433 kts 37°
2026-05-06 17:00 34.10707 -14.87702 38081 ft 435 kts 37°
2026-05-06 17:01 34.15087 -14.82665 38081 ft 435 kts 37°
2026-05-06 17:01 34.19454 -14.77637 38074 ft 435 kts 37°
2026-05-06 17:02 34.23829 -14.72592 38076 ft 435 kts 37°
2026-05-06 17:02 34.28202 -14.67541 38073 ft 435 kts 37°
2026-05-06 17:03 34.32578 -14.62479 38071 ft 435 kts 37°
2026-05-06 17:03 34.36911 -14.57459 38073 ft 435 kts 37°
2026-05-06 17:04 34.41298 -14.52370 38071 ft 437 kts 37°
2026-05-06 17:04 34.45690 -14.47266 38073 ft 438 kts 37°
2026-05-06 17:05 34.50093 -14.42142 38065 ft 438 kts 37°
2026-05-06 17:05 34.54479 -14.37029 38079 ft 438 kts 37°
2026-05-06 17:06 34.58866 -14.31908 38059 ft 438 kts 37°
2026-05-06 17:06 34.63256 -14.26775 38074 ft 438 kts 37°
2026-05-06 17:07 34.67607 -14.21680 38077 ft 438 kts 37°
2026-05-06 17:07 34.71994 -14.16534 38067 ft 441 kts 38°
2026-05-06 17:08 34.76410 -14.11348 38066 ft 441 kts 38°
2026-05-06 17:08 34.80824 -14.06154 38059 ft 441 kts 38°
2026-05-06 17:09 34.85240 -14.00951 38061 ft 441 kts 38°
2026-05-06 17:09 34.89637 -13.95762 38061 ft 441 kts 38°
2026-05-06 17:10 34.94048 -13.90548 38062 ft 441 kts 38°
2026-05-06 17:10 34.98447 -13.85340 38082 ft 440 kts 38°
2026-05-06 17:11 35.02859 -13.80108 38068 ft 445 kts 38°
2026-05-06 17:11 35.07294 -13.74840 38057 ft 446 kts 38°
2026-05-06 17:12 35.11740 -13.69552 38054 ft 446 kts 38°
2026-05-06 17:12 35.16149 -13.64297 38056 ft 445 kts 38°
2026-05-06 17:13 35.20617 -13.58966 38054 ft 445 kts 38°
2026-05-06 17:13 35.25008 -13.53717 38053 ft 445 kts 38°
2026-05-06 17:14 35.29438 -13.48413 38075 ft 446 kts 39°
2026-05-06 17:14 35.33900 -13.43062 38064 ft 451 kts 39°
2026-05-06 17:15 35.38382 -13.37678 38049 ft 451 kts 39°
2026-05-06 17:15 35.42848 -13.32304 38046 ft 450 kts 39°
2026-05-06 17:16 35.47321 -13.26915 38048 ft 451 kts 39°
2026-05-06 17:16 35.51033 -13.22434 38058 ft 450 kts 39°
2026-05-06 17:17 35.55482 -13.17056 38057 ft 446 kts 38°
2026-05-06 17:17 35.59890 -13.11720 38062 ft 447 kts 39°
2026-05-06 17:18 35.64344 -13.06318 38050 ft 452 kts 39°
2026-05-06 17:18 35.68814 -13.00887 38044 ft 451 kts 39°
2026-05-06 17:19 35.73279 -12.95455 38043 ft 451 kts 39°
2026-05-06 17:19 35.77723 -12.90038 38042 ft 451 kts 39°
2026-05-06 17:20 35.82159 -12.84624 38060 ft 451 kts 39°
2026-05-06 17:20 35.86608 -12.79185 38042 ft 450 kts 39°
2026-05-06 17:21 35.91065 -12.73728 38039 ft 454 kts 39°
2026-05-06 17:21 35.95545 -12.68233 38040 ft 456 kts 39°
2026-05-06 17:22 36.00045 -12.62705 38037 ft 455 kts 39°
2026-05-06 17:22 36.04536 -12.57179 38040 ft 456 kts 39°
2026-05-06 17:23 36.09173 -12.51876 38073 ft 454 kts 37°
2026-05-06 17:23 36.13794 -12.46599 38025 ft 452 kts 37°
2026-05-06 17:24 36.18413 -12.41308 38032 ft 453 kts 37°
2026-05-06 17:24 36.23019 -12.36022 38040 ft 457 kts 38°
2026-05-06 17:25 36.27691 -12.30653 38031 ft 458 kts 38°
2026-05-06 17:25 36.32349 -12.25290 38034 ft 458 kts 38°
2026-05-06 17:26 36.37011 -12.19914 38064 ft 458 kts 38°
2026-05-06 17:26 36.41667 -12.14534 38032 ft 456 kts 38°
2026-05-06 17:27 36.46319 -12.09151 38034 ft 457 kts 38°
2026-05-06 17:27 36.50958 -12.03773 38045 ft 457 kts 38°
2026-05-06 17:28 36.55623 -11.98357 38036 ft 461 kts 38°
2026-05-06 17:28 36.60309 -11.92905 38025 ft 460 kts 38°
2026-05-06 17:29 36.64985 -11.87456 38044 ft 460 kts 38°
2026-05-06 17:29 36.69616 -11.82051 38030 ft 460 kts 38°
2026-05-06 17:30 36.74290 -11.76586 38026 ft 461 kts 38°
2026-05-06 17:30 36.78965 -11.71109 38021 ft 461 kts 38°
2026-05-06 17:31 36.83634 -11.65630 38027 ft 461 kts 39°
2026-05-06 17:31 36.88292 -11.60155 38020 ft 461 kts 39°
2026-05-06 17:32 36.92953 -11.54666 38034 ft 460 kts 39°
2026-05-06 17:32 36.97603 -11.49181 38021 ft 460 kts 39°
2026-05-06 17:33 37.02261 -11.43676 38022 ft 460 kts 39°
2026-05-06 17:33 37.06898 -11.38186 38020 ft 460 kts 39°
2026-05-06 17:34 37.11546 -11.32674 38022 ft 460 kts 39°
2026-05-06 17:34 37.16211 -11.27131 38023 ft 464 kts 39°
2026-05-06 17:35 37.20901 -11.21549 38027 ft 465 kts 39°
2026-05-06 17:35 37.25548 -11.16009 38018 ft 465 kts 39°
2026-05-06 17:36 37.32574 -11.07613 38021 ft 465 kts 39°
2026-05-06 17:36 37.37255 -11.02006 38011 ft 464 kts 39°
2026-05-06 17:37 37.41915 -10.96414 38022 ft 465 kts 39°
2026-05-06 17:37 37.46618 -10.90761 38038 ft 469 kts 40°
2026-05-06 17:38 37.51312 -10.85109 38012 ft 470 kts 40°
2026-05-06 17:38 37.56035 -10.79409 38015 ft 470 kts 40°
2026-05-06 17:39 37.60756 -10.73704 38010 ft 470 kts 40°
2026-05-06 17:39 37.65484 -10.67978 38005 ft 470 kts 40°
2026-05-06 17:40 37.70205 -10.62252 38002 ft 470 kts 40°
2026-05-06 17:40 37.74893 -10.56555 38010 ft 471 kts 40°
2026-05-06 17:41 37.79618 -10.50805 38006 ft 473 kts 40°
2026-05-06 17:41 37.84363 -10.45018 38001 ft 474 kts 40°
2026-05-06 17:42 37.88937 -10.38980 38011 ft 475 kts 43°
2026-05-06 17:42 37.93477 -10.32905 37897 ft 476 kts 43°
2026-05-06 17:43 37.95750 -10.29861 36880 ft 482 kts 43°
2026-05-06 17:43 37.98065 -10.26759 35687 ft 484 kts 43°
2026-05-06 17:43 38.00377 -10.23657 34622 ft 484 kts 43°
2026-05-06 17:43 38.02679 -10.20566 33635 ft 481 kts 44°
2026-05-06 17:44 38.04968 -10.17486 32579 ft 478 kts 44°
2026-05-06 17:44 38.07240 -10.14428 31551 ft 475 kts 44°
2026-05-06 17:44 38.09502 -10.11381 30563 ft 473 kts 45°
2026-05-06 17:44 38.11739 -10.08366 29490 ft 471 kts 45°
2026-05-06 17:45 38.13954 -10.05378 28375 ft 469 kts 45°
2026-05-06 17:45 38.16177 -10.02375 27302 ft 465 kts 45°
2026-05-06 17:45 38.18375 -9.99367 26272 ft 464 kts 49°
2026-05-06 17:45 38.20076 -9.95899 25233 ft 461 kts 68°
2026-05-06 17:46 38.20799 -9.91999 24284 ft 454 kts 89°
2026-05-06 17:46 38.20443 -9.88076 23316 ft 444 kts 110°
2026-05-06 17:46 38.19033 -9.84668 22252 ft 442 kts 132°
2026-05-06 17:46 38.16706 -9.82159 21181 ft 438 kts 154°
2026-05-06 17:47 38.13843 -9.80989 20192 ft 432 kts 177°
2026-05-06 17:47 38.10884 -9.81324 19262 ft 427 kts 200°
2026-05-06 17:47 38.08329 -9.83074 18504 ft 410 kts 220°
2026-05-06 17:47 38.06123 -9.85252 17686 ft 396 kts 216°
2026-05-06 17:48 38.04125 -9.87535 16829 ft 382 kts 232°
2026-05-06 17:48 38.02861 -9.90428 15990 ft 373 kts 251°
2026-05-06 17:48 38.02453 -9.93576 15200 ft 366 kts 270°
2026-05-06 17:48 38.02919 -9.96715 14399 ft 362 kts 290°
2026-05-06 17:49 38.04208 -9.99422 13621 ft 360 kts 310°
2026-05-06 17:49 38.06164 -10.01337 13032 ft 351 kts 332°
2026-05-06 17:49 38.08440 -10.02149 12763 ft 336 kts 355°
2026-05-06 17:49 38.10701 -10.01837 12451 ft 324 kts 17°
2026-05-06 17:50 38.12626 -10.00474 12127 ft 314 kts 40°
2026-05-06 17:50 38.13913 -9.98302 11854 ft 308 kts 65°
2026-05-06 17:50 38.14516 -9.95702 11537 ft 309 kts 78°
2026-05-06 17:50 38.14936 -9.93012 11093 ft 312 kts 79°
2026-05-06 17:51 38.15347 -9.90330 10620 ft 306 kts 78°
2026-05-06 17:51 38.15748 -9.87684 10178 ft 304 kts 78°
2026-05-06 17:51 38.16148 -9.85036 9730 ft 307 kts 79°
2026-05-06 17:51 38.16531 -9.82505 9272 ft 309 kts 78°
2026-05-06 17:52 38.16932 -9.79817 8796 ft 308 kts 78°
2026-05-06 17:52 38.17323 -9.77193 8326 ft 300 kts 78°
2026-05-06 17:52 38.17699 -9.74689 8060 ft 288 kts 79°
2026-05-06 17:52 38.18051 -9.72302 8032 ft 283 kts 78°
2026-05-06 17:53 38.18414 -9.69835 7987 ft 283 kts 79°
2026-05-06 17:53 38.18778 -9.67379 7976 ft 283 kts 78°
2026-05-06 17:53 38.19176 -9.64951 7967 ft 278 kts 70°
2026-05-06 17:53 38.20170 -9.62922 8003 ft 268 kts 47°
2026-05-06 17:54 38.21358 -9.61078 7965 ft 270 kts 51°
2026-05-06 17:54 38.22503 -9.59192 7969 ft 270 kts 51°
2026-05-06 17:54 38.23636 -9.57304 7968 ft 270 kts 52°
2026-05-06 17:54 38.24768 -9.55397 7970 ft 270 kts 52°
2026-05-06 17:55 38.25893 -9.53490 7961 ft 270 kts 52°
2026-05-06 17:55 38.27018 -9.51577 7967 ft 270 kts 52°
2026-05-06 17:55 38.28141 -9.49662 7963 ft 271 kts 52°
2026-05-06 17:55 38.29266 -9.47742 7964 ft 271 kts 52°
2026-05-06 17:56 38.30388 -9.45824 7956 ft 265 kts 53°
2026-05-06 17:56 38.31462 -9.43989 7966 ft 253 kts 53°
2026-05-06 17:56 38.32504 -9.42206 7967 ft 250 kts 53°
2026-05-06 17:56 38.33539 -9.40433 7965 ft 250 kts 53°
2026-05-06 17:57 38.34576 -9.38657 7954 ft 250 kts 53°
2026-05-06 17:57 38.35562 -9.36842 7940 ft 249 kts 64°
2026-05-06 17:57 38.35909 -9.34716 7934 ft 247 kts 94°
2026-05-06 17:57 38.35650 -9.32535 7969 ft 250 kts 100°
2026-05-06 17:58 38.35343 -9.30354 7955 ft 250 kts 100°
2026-05-06 17:58 38.34969 -9.28220 7942 ft 250 kts 112°
2026-05-06 17:58 38.34225 -9.26232 7966 ft 250 kts 110°
2026-05-06 17:58 38.34023 -9.24045 7899 ft 246 kts 79°
2026-05-06 17:59 38.34689 -9.22089 7906 ft 246 kts 50°
2026-05-06 17:59 38.36043 -9.20789 7929 ft 246 kts 20°
2026-05-06 17:59 38.37719 -9.20265 7903 ft 249 kts
2026-05-06 17:59 38.39432 -9.20036 7478 ft 255 kts 355°
2026-05-06 18:00 38.41177 -9.20415 6967 ft 256 kts 346°
2026-05-06 18:00 38.42931 -9.20962 6304 ft 263 kts 346°
2026-05-06 18:00 38.44737 -9.21482 5589 ft 269 kts 347°
2026-05-06 18:00 38.46585 -9.21958 4906 ft 272 kts 348°
2026-05-06 18:01 38.48408 -9.22392 4683 ft 257 kts 347°
2026-05-06 18:01 38.50091 -9.22795 4634 ft 236 kts 348°
2026-05-06 18:01 38.51647 -9.23178 4537 ft 219 kts 348°
2026-05-06 18:01 38.53098 -9.23480 4410 ft 203 kts 351°
2026-05-06 18:02 38.54457 -9.23606 4326 ft 190 kts 356°
2026-05-06 18:02 38.55761 -9.23564 4220 ft 187 kts
2026-05-06 18:02 38.57043 -9.23302 4133 ft 185 kts
2026-05-06 18:02 38.58292 -9.22967 4079 ft 181 kts 10°
2026-05-06 18:03 38.59107 -9.22745 4094 ft 179 kts
2026-05-06 18:03 38.60326 -9.22409 4108 ft 181 kts
2026-05-06 18:03 38.61552 -9.22082 4039 ft 180 kts
2026-05-06 18:03 38.62772 -9.21730 3855 ft 179 kts 14°
2026-05-06 18:04 38.63894 -9.21131 3616 ft 170 kts 20°
2026-05-06 18:04 38.64933 -9.20465 3355 ft 164 kts 21°
2026-05-06 18:04 38.65957 -9.19867 3166 ft 161 kts 20°
2026-05-06 18:04 38.66988 -9.19283 2911 ft 164 kts 17°
2026-05-06 18:05 38.68056 -9.18775 2546 ft 162 kts 14°
2026-05-06 18:05 38.69072 -9.18341 2216 ft 145 kts 14°
2026-05-06 18:05 38.69969 -9.17938 1921 ft 131 kts 18°
2026-05-06 18:05 38.70798 -9.17461 1659 ft 132 kts 16°
2026-05-06 18:06 38.71662 -9.17063 1430 ft 131 kts 14°
2026-05-06 18:06 38.72503 -9.16628 1269 ft 130 kts 16°
2026-05-06 18:06 38.73351 -9.16165 1074 ft 135 kts 18°
2026-05-06 18:06 38.74213 -9.15690 874 ft 134 kts 17°
2026-05-06 18:07 38.75088 -9.15237 723 ft 137 kts 19°
2026-05-06 18:07 38.75945 -9.14755 543 ft 136 kts 17°
2026-05-06 18:07 38.76818 -9.14296 360 ft 133 kts 17°
2026-05-06 18:07 38.77471 -9.13947 366 ft 66 kts 23°
2026-05-06 18:08 38.77831 -9.13756 369 ft 55 kts 22°
2026-05-06 18:08 38.78145 -9.13585 372 ft 37 kts 24°
2026-05-06 18:08 38.78303 -9.13448 367 ft 20 kts 45°
2026-05-06 18:08 38.78374 -9.13343 365 ft 11 kts 60°
2026-05-06 18:09 38.78375 -9.13280 363 ft 0 kts 121°
2026-05-06 18:09 38.78372 -9.13273 363 ft 0 kts 121°
2026-05-06 18:09 38.78367 -9.13264 368 ft 3 kts 126°
2026-05-06 18:10 38.78351 -9.13256 362 ft 4 kts 174°
2026-05-06 18:10 38.78315 -9.13268 362 ft 7 kts 202°
2026-05-06 18:10 38.78261 -9.13296 364 ft 10 kts 202°
2026-05-06 18:10 38.78186 -9.13335 365 ft 13 kts 202°
2026-05-06 18:11 38.78129 -9.13365 366 ft 0 kts 203°
2026-05-06 18:11 38.78126 -9.13367 366 ft 2 kts 203°
2026-05-06 18:12 38.78106 -9.13377 361 ft 5 kts 203°
2026-05-06 18:12 38.78066 -9.13399 363 ft 8 kts 203°
2026-05-06 18:12 38.78000 -9.13434 360 ft 14 kts 202°
2026-05-06 18:12 38.77888 -9.13494 362 ft 21 kts 203°
2026-05-06 18:13 38.77745 -9.13572 361 ft 24 kts 202°
2026-05-06 18:13 38.77591 -9.13653 365 ft 24 kts 203°
2026-05-06 18:13 38.77431 -9.13738 362 ft 26 kts 202°
2026-05-06 18:13 38.77253 -9.13834 360 ft 29 kts 202°
2026-05-06 18:14 38.77093 -9.13900 356 ft 20 kts 173°
2026-05-06 18:14 38.76947 -9.13859 351 ft 24 kts 168°
2026-05-06 18:14 38.76783 -9.13815 354 ft 24 kts 168°
2026-05-06 18:14 38.76639 -9.13776 347 ft 8 kts 168°
2026-05-06 18:15 38.76601 -9.13807 356 ft 7 kts 252°
2026-05-06 18:15 38.76590 -9.13882 348 ft 9 kts 258°
2026-05-06 18:15 38.76556 -9.13936 351 ft 7 kts 183°
2026-05-06 18:15 38.76518 -9.13906 356 ft 7 kts 109°
2026-05-06 18:16 38.76515 -9.13862 350 ft 3 kts 114°
2026-05-06 18:16 38.76497 -9.13846 353 ft 3 kts 154°
2026-05-06 18:16 38.76482 -9.13840 353 ft 3 kts 170°
2026-05-06 18:16 38.76458 -9.13835 350 ft 1 kts 169°
2026-05-06 18:17 38.76446 -9.13832 350 ft 0 kts 168°